"Pseudo-MPEC" for A10apS5

Created 2018 Dec 6 21:18:03 UT using Find_Orb

Click here for an explanation of pseudo-MPECs

 
 Astrometry: 
     A10apS5  C2018 12 03](9yEkKdF#Sn)AstrometryX`KKUFvfBZP2e;ODj#\sp[ra`\a=jT05
     A10apS5  C2018 12 03YM$FI^P[#ldH6g*/]?\x%:BbJCdNJF.wJ.b^[e*FgAgq*Kjf#o+=T05
     A10apS5  C2018 12 039XXj\fjDJc/QPmZrGGvp,mbSi,?9yQqj3]41anOptZB6[:]\jTh^T05
     A10apS5  C2018 12 03F7F4t4y5)N,W.`yyA:\W*6yB-uIcji?je$TTXj],Pno6nn2bPiFAT05
     A10apS5  C2018 12 03b(eRbP1=*i-AO76DM^l9Fw)lL5j(ERd0^L;oiy^PA4g12oI%.ok;T05
     A10apS5  C2018 12 03s9w*xIyGmx,Cste*,4Sevgh;_I5G\/:Ym8\l`OjFMd@lHVl23D*OT05
     A10apS5  C2018 12 04.32575 07 25 39.68 +28 40 24.5          19.3 GVNEOCPI52
     A10apS5  C2018 12 04.32865 07 25 39.80 +28 40 30.3          19.4 GVNEOCPI52
     A10apS5  C2018 12 04.33154 07 25 39.95 +28 40 35.7          18.9 GVNEOCPI52
     A10apS5 IC2018 12 04EN89@RheRo)La+RA;xxNfBX;f31/o12C#KdUm)-c2Y$qe3dxaPtsL01
     A10apS5 KC2018 12 04'Q[KT`icSrJp^]O/IOBg']q!1pVp(C?0NT5):$FHPqhTGwWvtD#1L01
     A10apS5 KC2018 12 04HXf2aAGj5%j]/aVQ#(MTr14Aj0-#U8jAy1hCFG4^VO:aEqisKFk]L01
     A10apS5  C2018 12 04H(8IS#kQ#8?aHnU/:My3redacted;REXiYDqWX%2qJ@NoqR.6mV*J04
     A10apS5  C2018 12 04\iLQhw.,/h`B_db4Z3@h#gx-jr,tkq1/;]:)ZIii7OeP:'tn8qn%J04
     A10apS5  C2018 12 040BQG\Z[_I$PyD'mKEg@^]kQpB5AwL+?#RU^g;alk`6rS;rt50W'(J04
     A10apS5 KC2018 12 04$mQwJ^SbKHJq90af#8llHJMP3%:FsmxJq\WZa%*Ysn@_fwwYDy]qK88
     A10apS5 KC2018 12 04*7w\bor?OYyYlr'gWnd.Mba0ZjZdsx;W689Ra1K6EJI7BQ$SyC;LC47
     A10apS5 KC2018 12 05*@yw87kDSVpi!@mm=xqpw:fIh9?[cIU?RXnwVGTLj/G]d[N4XB[BK88
     A10apS5  C2018 12 05.00602 07 26 11.66 +29 02 52.7          19.2 VSNEOCP033
     A10apS5  C2018 12 05.00670 07 26 11.69 +29 02 54.3          19.6 VSNEOCP033
     A10apS5  C2018 12 05.00737 07 26 11.71 +29 02 55.3          19.4 VSNEOCP033
     A10apS5 KC2018 12 053Wh?i\=y]KLMZM177Fe%%-Z:*#il5Z1HkSg4i*4L/`Tj3e[$eF]DC47
     A10apS5 KC2018 12 05]/bI1TyhF]Lm7OEr-1rkUYbnq7v._W294e[ZH^`og,*fX7Q*(-dE104
     A10apS5 KC2018 12 057!n*5YeI\#/Q$P8b=JyHU\Us'e.==+y.,Hlu[WDq5.#m^;UUeT$t104
     A10apS5 KC2018 12 05hoaB#GjoC%'AQpOTchoC4L!c=i0hg@W7[Sn(wclick%EGSov-XdVC47
     A10apS5 KC2018 12 05?Rbt8s1sLYIw[%v(3k%@ICQy+vI*uU]);0nh\Nj_KeH.x9gr=1#p104
     A10apS5 KC2018 12 05`+XUMCR!hlLnWN/hD[+U_!%^NyBBN\'`7w34*hvop-CM1qwp\L+AC47
     A10apS5 KC2018 12 05#MjU:$_][5RQBuX^a)51cL]IG]-dYt=7!-F;e_xFt*RdTAnCRWo6C47
     A10apS5 KC2018 12 05bwxc^DXJ)1p#;sug'[$Ilt_Mj2;KsWHqta;R1x=[U38N.%/%:4N,K63
     A10apS5 KC2018 12 05WM_ZDYA:f,l)AHYv%^`*RN29jyLvxUTK:hJtc`o0CjX`J/?bI#;wK63
     A10apS5 KC2018 12 05f5K8P9J40KDSpWmt@f\iiQf$_-8@$%UPq+ig/F!sKy'uVtov;,?*K63
     A10apS5 KC2018 12 05=q4L!+2DLAj';p'Bk7p;heG-p^m3[9hRd#%ebk0ifTp'$w#p5N1WK38
     A10apS5 KC2018 12 05PRK?*ivcU^T?MAsxxuZHdb3AUE`s;q#GvB,frou1$:8yg6U?25APK38
     A10apS5 KC2018 12 054I77p44T,LO=PCVOdl**XthereKc%Z5f3U6l8-Zc425=P?:`n%RSK38
     A10apS5  C2018 12 05.17108 07 26 18.68 +29 08 27.4          18.2 VSNEOCP033
     A10apS5  C2018 12 05.17175 07 26 18.70 +29 08 28.7          18.6 VSNEOCP033
     A10apS5  C2018 12 05.17243 07 26 18.73 +29 08 30.0          18.5 VSNEOCP033
     A10apS5 KC2018 12 05n=M\r'rd?YEyw322QRkJ.-Ys4H!uHRjO%UI8TH5A4HLPTrRTBaV4204
     A10apS5 KC2018 12 05'MEW,TZDb\4)q60Gj(TxJ;nOE*e$%t,,s=lMwji3$L*:\,^d`75!204
     A10apS5 KC2018 12 05/YDo?=21D/!gBZ9'Nv3g`sXON=EXHy\1XZwwlbuUcbQwXLRE98qh204
     A10apS5 KC2018 12 05;!DB[usM]I\14xgl$?8=20hTWA6m-QH+M*G1=Jn=[(o#Nsvfj.QXL04
     A10apS5 KC2018 12 05j)*uW4!Xr(nj=P_t$3qEWYv6B^%%\aJeEEvZ!T4s6(c.X#(\jy'GL04
     A10apS5 KC2018 12 054QW^q#^m7_K2lSveS)!C\)jo:(JVD9-Vw$Y5Lpt(A-tN]u9jX:3:L04
     A10apS5 KC2018 12 05H^MUn%4M::wiBPpFgk_WISj+!(C;kSDGIht=\q`$i6u5#@N4D[XfK88
     A10apS5 KC2018 12 05N*/u-QI%4telcVAR3bH`aZ(:Fki`qEcFRno1(iQO,ap^t2vrWNbKK88
     A10apS5 KC2018 12 05ZJ3f?\x!OP26!Kd3ia`Irh1w=?8RLY2wlxp(vforq.%uo#FZjiu*K88
     A10apS5  C2018 12 06C7hppGR=DOhS.j($G(88q3vd4oiX_2oM\?'][ZTcC3K3oO[wAMH.J04
     A10apS5  C2018 12 06XBJ,YDg%!q_:Lj'usr;iu#m.Ff!D`%PsIr6)MaBlUI6\D/S=$Bl(J04
     A10apS5  C2018 12 06F2bP,fBoP]kv8:2N_u'VT$H6mIN!o`=yl)VhR,KD(=^nlwiM-CQ/J04
     A10apS5 KC2018 12 06,qJpl-[`2`*n$BJt,w'))7=(VHPp/Gp3q@xwd8d3-Of'5=bsSj(0850
     A10apS5 KC2018 12 06hQl/)jim(TZx;0By5^r68bUQ(0dXy;JbxnQFP+(jFBj6[bLM%jO4850
     A10apS5 KC2018 12 06Um_T7Fv)wq)s;?T#k'\60p1A;qd8'Xx[Ni[Ne;Wbfa6'D_rLAb\8850
     A10apS5 KC2018 12 06LTQ-(@BW`7h$O8+0]D(cfjyX=W?brhTJO7DqH*c6-gfELP\q2E7V850
     A10apS5 KC2018 12 06V:$ed./YJmB`/\V\-h\xD[Gr7C.n]fYt[eT_XvEY`3v\o)%+'#f(850
     A10apS5 KC2018 12 06J_dD@ORYbO$A5^.1uWncO#O1explanationy-6\Yx,c+8l]qT2PO850

Station data:
(033) Karl Schwarzschild Observatory, Tautenburg  (N50.980140 E11.711240)
   Germany. 1.3-m Schmidt.
(104) San Marcello Pistoiese  (N44.063037 E10.804200)  Italy. 0.40-m f/5
   reflector.
(204) Schiaparelli Observatory  (N45.867933 E8.770800)  Italy.  Observer L.
   Buzzi. 0.60-m f/4.64 Newtonian + CCD.
(850) Cordell-Lorenz Observatory, Sewanee  (N35.204094 W85.919800)
   US/Tennessee. 0.3-m Schmidt-Cassegrain.
(C47) Nonndorf  (N48.786797 E15.235600)  Austria.
(I52) Steward Observatory, Mt. Lemmon Station  (N32.442547 W110.788920)
   US/Arizona.  Observers B. M. Africano, E. J. Christensen, G. A. Farneth,
   D. C. Fuls, A. R. Gibbs, A. D. Grauer, H. Groeller, J. A. Johnson, R. A.
   Kowalski, S. M. Larson, G. J. Leonard, R. L. Seaman, F. C. Shelly. 1.0-m
   reflector + CCD.
(J04) ESA Optical Ground Station, Tenerife  (N28.300924 W16.511830)  Canary
   Islands (Spain).  Observer D. Abreu. Measurers M. Micheli, D. Koschny, E.
   Schwab, M. Busch, A. Knöfel. 1.0-m f/4.4 reflector + CCD.
(K38) M57 Observatory, Saltrio  (N45.873785 E8.918240)  Italy.
(K63) G. Pascoli Observatory, Castelvecchio Pascoli  (N44.082410 E10.462000)
   Italy.
(K88) GINOP-KHK, Piszkéstető  (N47.917622 E19.893600)  Hungary.  Observer K.
   Sárneczky. 0.60-m Schmidt + CCD.
(L01) Višnjan Observatory, Tičan  (N45.290900 E13.749300)  Croatia.
   Observers K. Korlević, E. Pettarin. Measurer E. Pettarin. 1.0-m f/2.9
   reflector + CCD.
(L04) ROASTERR-1 Observatory, Cluj-Napoca  (N46.820954 E23.596400)  Romania.
(T05) ATLAS-HKO, Haleakala  (N20.707573 W156.257010)  US/Hawaii.  Observers
   L. Denneau, A. Heinze, H. Weiland, J. Tonry, H. Flewelling, A.
   Fitzsimmons, D. Young. Measurers L. Denneau, A. Heinze, J. Tonry. 0.5-m
   f/2.0 Schmidt + CCD.

Orbital elements:  A10apS5
   Perihelion 2019 Mar 5.117999 +/- 0.181 TT =  2:49:55 (JD 2458547.617999)
Epoch 2018 Dec  6.0 TT = JDT 2458458.5   Earth MOID: 0.0468   Ma: 0.0142
M 333.17896475 +/- 0.6              (J2000 ecliptic)          AutoNEOCP
n   0.30096092 +/- 0.00695          Peri.  114.22178 +/- 0.21
a   2.20527442 +/- 0.034            Node    78.52026 +/- 0.08
e   0.6764612 +/- 0.00514           Incl.   20.76622 +/- 0.15
P   3.27                   H 18.6   G  0.15   U  9.4  
q 0.71349182 +/- 0.0016    Q 3.69705702 +/- 0.0702
From 55 observations 2018 Dec. 3-6; mean residual 0".31
Residuals in arcseconds: 
181203 T05  .36+  .13-    181205 033  .06+  .32+    181205 204  .02-  .10+    
181203 T05  .34+  .20-    181205 033  .06-  .04-    181205 204  .12-  .18+    
181203 T05  .22+  .69-    181205 C47  .10+  .08-    181205 L04  .05+  .09-    
181203 T05  .44-  .24+    181205 104  .35+  .05-    181205 L04  .45-  .13-    
181203 T05  .65-  .00     181205 104  .20+  .40+    181205 L04  .13+  .24-    
181203 T05  .10-  .26+    181205 C47  .02+  .10-    181205 K88  .41-  .06-    
181204 I52  .02+  .30+    181205 104  .06+  .01-    181205 K88  .10-  .20+    
181204 I52  .02-  .37+    181205 C47  .09+  .12-    181205 K88  .17-  .15+    
181204 I52  .35+  .07+    181205 C47  .06+  .16-    181206 J04  .12-  .32-    
181204 L01  .09-  .40+    181205 K63  .21-  .19-    181206 J04  .22-  .21-    
181204 L01  .06-  .25+    181205 K63  .08+  .27-    181206 J04  .11-  .06-    
181204 L01  .01-  .18-    181205 K63  .16+  .35-    181206 850  .54+  .31-    
181204 J04  .17+  .17-    181205 K38  .03+  .23-    181206 850  .18+  .10+    
181204 J04  .01-  .11-    181205 K38  .16+  .52-    181206 850  1.0+  .47+    
181204 J04  .08+  .06+    181205 K38  .68-  .39-    181206 850  1.0-  .15-    
181204 K88  .55+  .91+    181205 033  .06-  .12+    181206 850  .88+  .91+    
181204 C47  .07-  .08+    181205 033  .18-  .07+    181206 850  .20-  .30-    
181205 K88  .34-  .12-    181205 033  .17-  .01-    
181205 033  .05+  .11+    181205 204  .05-  .03+    

Ephemerides (geocentric):
Date (UTC) HH   RA              Dec         delta   r     elong  mag " sig PA
---- -- -- --  -------------   -----------  ------ ------ -----  --- ---- ---
2018 12 06 21  07 27 38.154   +30 09 00.56  .54470 1.4636 144.6 19.2 .283 104
2018 12 06 22  07 27 40.063   +30 10 33.19  .54411 1.4632 144.6 19.2 .297 103
2018 12 06 23  07 27 41.970   +30 12 06.02  .54352 1.4628 144.6 19.2 .310 103
2018 12 07 00  07 27 43.876   +30 13 39.04  .54293 1.4623 144.7 19.2 .324 103
2018 12 07 01  07 27 45.781   +30 15 12.26  .54234 1.4619 144.7 19.2 .338 103
2018 12 07 02  07 27 47.685   +30 16 45.68  .54175 1.4615 144.7 19.2 .352 103
2018 12 07 03  07 27 49.588   +30 18 19.29  .54116 1.4610 144.8 19.2 .366 102
2018 12 07 04  07 27 51.489   +30 19 53.10  .54058 1.4606 144.8 19.2 .381 102
2018 12 07 05  07 27 53.390   +30 21 27.10  .53999 1.4602 144.8 19.2 .396 102
2018 12 07 06  07 27 55.289   +30 23 01.31  .53940 1.4598 144.9 19.2 .412 102
2018 12 07 07  07 27 57.188   +30 24 35.71  .53882 1.4593 144.9 19.2 .428 102
2018 12 07 08  07 27 59.085   +30 26 10.31  .53823 1.4589 144.9 19.2 .444 101
2018 12 07 09  07 28 00.981   +30 27 45.11  .53764 1.4585 145.0 19.2 .460 101
2018 12 07 10  07 28 02.876   +30 29 20.11  .53706 1.4581 145.0 19.2 .476 101
2018 12 07 11  07 28 04.770   +30 30 55.32  .53647 1.4576 145.0 19.2 .493 101
2018 12 07 12  07 28 06.662   +30 32 30.72  .53589 1.4572 145.1 19.2 .511 101
2018 12 07 13  07 28 08.554   +30 34 06.32  .53530 1.4568 145.1 19.2 .528 101
